• In Russia
  • List of Countries
  • For 7 days
  • Water Temperature
  • Satellite Maps
  • Weather Map
  • Weather Widgets
  • user-avatar
    Login

    Hourly Weather Bischofshofen

    Today, 19 July, Friday

    Time Temperature Precipitation Wind Pressure Humidity
    00:00 +14°C° 0 mm 1 mps 697 mmHg 90%
    01:00 +14°C° 0 mm 1 mps 698 mmHg 91%
    02:00 +14°C° 0 mm 1 mps 698 mmHg 91%
    03:00 +14°C° 0 mm 1 mps 698 mmHg 91%
    04:00 +13°C° 0 mm 1 mps 698 mmHg 90%
    05:00 +15°C° 0 mm 1 mps 698 mmHg 88%
    06:00 +16°C° 0 mm 1 mps 698 mmHg 86%
    07:00 +17°C° 0 mm 0 mps 699 mmHg 83%
    08:00 +19°C° 0 mm 0 mps 699 mmHg 71%
    09:00 +22°C° 0 mm 0 mps 699 mmHg 59%
    10:00 +24°C° 0 mm 0 mps 700 mmHg 46%
    11:00 +27°C° 0 mm 1 mps 700 mmHg 44%
    12:00 +28°C° 0 mm 1 mps 700 mmHg 41%
    13:00 +29°C° 0 mm 1 mps 699 mmHg 38%
    14:00 +28°C° 0.1 mm 1 mps 699 mmHg 46%
    15:00 +27°C° 0.1 mm 1 mps 699 mmHg 54%
    16:00 +25°C° 0.1 mm 2 mps 699 mmHg 62%
    17:00 +24°C° 0.5 mm 1 mps 699 mmHg 72%
    18:00 +22°C° 0.5 mm 1 mps 699 mmHg 81%
    19:00 +21°C° 0.5 mm 1 mps 699 mmHg 91%
    20:00 +20°C° 0 mm 1 mps 699 mmHg 91%
    21:00 +18°C° 0 mm 1 mps 699 mmHg 92%
    22:00 +16°C° 0 mm 1 mps 699 mmHg 92%
    23:00 +16°C° 0 mm 1 mps 699 mmHg 92%

    Tomorrow, 20 July, Saturday

    Time Temperature Precipitation Wind Pressure Humidity
    00:00 +16°C° 0 mm 1 mps 699 mmHg 92%
    01:00 +15°C° 0 mm 1 mps 699 mmHg 92%
    02:00 +15°C° 0 mm 1 mps 699 mmHg 92%
    03:00 +15°C° 0 mm 1 mps 699 mmHg 92%
    04:00 +15°C° 0 mm 1 mps 699 mmHg 91%
    05:00 +16°C° 0 mm 1 mps 699 mmHg 89%
    06:00 +19°C° 0 mm 1 mps 700 mmHg 87%
    07:00 +21°C° 0 mm 1 mps 700 mmHg 85%
    08:00 +22°C° 0 mm 0 mps 700 mmHg 72%
    09:00 +25°C° 0 mm 0 mps 701 mmHg 59%
    10:00 +28°C° 0 mm 0 mps 701 mmHg 46%
    11:00 +28°C° 0 mm 0 mps 701 mmHg 42%
    12:00 +31°C° 0 mm 1 mps 701 mmHg 39%
    13:00 +32°C° 0 mm 1 mps 701 mmHg 35%
    14:00 +30°C° 0.2 mm 1 mps 701 mmHg 45%
    15:00 +29°C° 0.2 mm 1 mps 700 mmHg 55%
    16:00 +27°C° 0.2 mm 2 mps 700 mmHg 64%
    17:00 +25°C° 0.9 mm 1 mps 700 mmHg 72%
    18:00 +24°C° 0.9 mm 1 mps 700 mmHg 80%
    19:00 +20°C° 0.9 mm 0 mps 700 mmHg 87%
    20:00 +22°C° 0.7 mm 1 mps 700 mmHg 88%
    21:00 +21°C° 0.7 mm 1 mps 701 mmHg 89%
    22:00 +20°C° 0.7 mm 1 mps 701 mmHg 90%
    23:00 +19°C° 0.1 mm 1 mps 701 mmHg 91%

    Day after tomorrow, 21 July, Sunday

    Time Temperature Precipitation Wind Pressure Humidity
    00:00 +19°C° 0.1 mm 1 mps 701 mmHg 91%
    01:00 +18°C° 0.1 mm 1 mps 701 mmHg 91%
    02:00 +18°C° 0 mm 1 mps 701 mmHg 90%
    03:00 +18°C° 0 mm 1 mps 701 mmHg 89%
    04:00 +18°C° 0 mm 1 mps 701 mmHg 88%
    05:00 +20°C° 0 mm 1 mps 701 mmHg 85%
    06:00 +21°C° 0 mm 1 mps 701 mmHg 82%
    07:00 +23°C° 0 mm 1 mps 702 mmHg 79%
    08:00 +24°C° 0.2 mm 1 mps 702 mmHg 74%
    09:00 +26°C° 0.2 mm 1 mps 702 mmHg 68%
    10:00 +27°C° 0.2 mm 1 mps 703 mmHg 63%
    11:00 +28°C° 0.5 mm 1 mps 703 mmHg 61%
    12:00 +28°C° 0.5 mm 1 mps 703 mmHg 59%
    13:00 +29°C° 0.5 mm 1 mps 703 mmHg 57%
    14:00 +28°C° 1.2 mm 1 mps 703 mmHg 66%
    15:00 +27°C° 1.2 mm 1 mps 703 mmHg 74%
    16:00 +26°C° 1.2 mm 1 mps 703 mmHg 83%
    17:00 +25°C° 0.8 mm 1 mps 703 mmHg 86%
    18:00 +24°C° 0.8 mm 1 mps 703 mmHg 90%
    19:00 +21°C° 0.8 mm 0 mps 703 mmHg 93%
    20:00 +21°C° 0.2 mm 1 mps 703 mmHg 93%
    21:00 +20°C° 0.2 mm 1 mps 704 mmHg 93%
    22:00 +19°C° 0.2 mm 1 mps 704 mmHg 93%
    23:00 +19°C° 0 mm 1 mps 704 mmHg 93%

    22 July, Monday

    Time Temperature Precipitation Wind Pressure Humidity
    00:00 +18°C° 0 mm 1 mps 704 mmHg 93%
    01:00 +18°C° 0 mm 1 mps 704 mmHg 92%
    02:00 +18°C° 0 mm 1 mps 704 mmHg 93%
    03:00 +18°C° 0 mm 1 mps 704 mmHg 93%
    04:00 +16°C° 0 mm 0 mps 704 mmHg 93%
    05:00 +17°C° 0 mm 0 mps 704 mmHg 92%
    06:00 +19°C° 0 mm 0 mps 704 mmHg 90%
    07:00 +20°C° 0 mm 0 mps 705 mmHg 89%
    08:00 +22°C° 0.3 mm 0 mps 705 mmHg 83%
    09:00 +25°C° 0.3 mm 1 mps 705 mmHg 77%
    10:00 +27°C° 0.3 mm 1 mps 705 mmHg 71%
    11:00 +27°C° 0.3 mm 1 mps 705 mmHg 67%
    12:00 +28°C° 0.3 mm 2 mps 705 mmHg 63%
    13:00 +29°C° 0.3 mm 2 mps 705 mmHg 59%
    14:00 +28°C° 0.1 mm 2 mps 705 mmHg 58%
    15:00 +28°C° 0.1 mm 2 mps 705 mmHg 58%
    16:00 +28°C° 0.1 mm 2 mps 705 mmHg 57%
    17:00 +27°C° 0 mm 2 mps 705 mmHg 67%
    18:00 +25°C° 0 mm 1 mps 704 mmHg 77%
    19:00 +23°C° 0 mm 1 mps 704 mmHg 87%
    20:00 +22°C° 0 mm 1 mps 704 mmHg 90%
    21:00 +19°C° 0 mm 0 mps 704 mmHg 92%
    22:00 +17°C° 0 mm 0 mps 704 mmHg 95%
    23:00 +17°C° 0 mm 0 mps 704 mmHg 95%

    23 July, Tuesday

    Time Temperature Precipitation Wind Pressure Humidity
    00:00 +19°C° 0 mm 1 mps 704 mmHg 95%
    01:00 +19°C° 0 mm 1 mps 704 mmHg 95%
    02:00 +18°C° 0 mm 1 mps 704 mmHg 95%
    03:00 +18°C° 0 mm 1 mps 704 mmHg 94%
    04:00 +18°C° 0 mm 1 mps 703 mmHg 94%
    05:00 +17°C° 0 mm 0 mps 704 mmHg 90%
    06:00 +19°C° 0 mm 0 mps 704 mmHg 87%
    07:00 +21°C° 0 mm 0 mps 704 mmHg 83%
    08:00 +23°C° 0 mm 0 mps 704 mmHg 71%
    09:00 +27°C° 0 mm 1 mps 705 mmHg 60%
    10:00 +29°C° 0 mm 1 mps 705 mmHg 49%
    11:00 +30°C° 0 mm 1 mps 705 mmHg 44%
    12:00 +31°C° 0 mm 1 mps 704 mmHg 40%
    13:00 +32°C° 0 mm 1 mps 704 mmHg 35%
    14:00 +31°C° 0 mm 1 mps 704 mmHg 37%
    15:00 +31°C° 0 mm 2 mps 703 mmHg 39%
    16:00 +31°C° 0 mm 2 mps 703 mmHg 41%
    17:00 +29°C° 0 mm 1 mps 703 mmHg 53%
    18:00 +27°C° 0 mm 1 mps 702 mmHg 66%
    19:00 +25°C° 0 mm 1 mps 702 mmHg 78%
    20:00 +23°C° 0 mm 1 mps 702 mmHg 81%
    21:00 +22°C° 0 mm 1 mps 702 mmHg 84%
    22:00 +20°C° 0 mm 1 mps 702 mmHg 87%
    23:00 +20°C° 0 mm 1 mps 702 mmHg 88%

    24 July, Wednesday

    Time Temperature Precipitation Wind Pressure Humidity
    00:00 +20°C° 0 mm 1 mps 702 mmHg 88%
    01:00 +20°C° 0 mm 1 mps 702 mmHg 89%
    02:00 +19°C° 0 mm 1 mps 702 mmHg 89%
    03:00 +19°C° 0 mm 1 mps 701 mmHg 89%
    04:00 +19°C° 0 mm 1 mps 701 mmHg 89%
    05:00 +21°C° 0 mm 1 mps 701 mmHg 83%
    06:00 +22°C° 0 mm 1 mps 702 mmHg 77%
    07:00 +22°C° 0 mm 0 mps 702 mmHg 72%
    08:00 +24°C° 0 mm 0 mps 702 mmHg 62%
    09:00 +29°C° 0 mm 1 mps 703 mmHg 52%
    10:00 +31°C° 0 mm 1 mps 703 mmHg 42%
    11:00 +32°C° 0 mm 1 mps 703 mmHg 40%
    12:00 +32°C° 0 mm 1 mps 703 mmHg 37%
    13:00 +34°C° 0 mm 2 mps 702 mmHg 35%
    14:00 +32°C° 0 mm 2 mps 702 mmHg 38%
    15:00 +32°C° 0 mm 2 mps 702 mmHg 41%
    16:00 +32°C° 0 mm 2 mps 702 mmHg 44%
    17:00 +30°C° 0 mm 2 mps 701 mmHg 55%
    18:00 +28°C° 0 mm 1 mps 701 mmHg 67%
    19:00 +26°C° 0 mm 1 mps 701 mmHg 78%
    20:00 +24°C° 0 mm 1 mps 701 mmHg 81%
    21:00 +23°C° 0 mm 1 mps 701 mmHg 83%
    22:00 +22°C° 0 mm 1 mps 701 mmHg 85%
    23:00 +21°C° 0 mm 1 mps 701 mmHg 86%
    Show more